1509120000.74,10934,11.5,72772.8,-6.67,-7.35,-7.31,0,*5C
1509120001.99,10935,11.44,72774.5,-6.65,-7.35,-7.31,0,*5F
1509120003.26,10936,11.44,72778.5,-6.67,-7.31,-7.35,0,*5E
1509120004.54,10937,11.44,72778.0,-6.67,-7.43,-7.35,0,*5A
1509120005.77,10938,11.44,72774.5,-6.65,-7.49,-7.43,0,*5C
1509120006.96,10939,11.44,72764.3,-6.65,-7.49,-7.49,0,*57
1509120008.16,10940,11.5,72774.3,-6.65,-7.53,-7.49,0,*52
1509120009.41,10941,11.44,72774.0,-6.67,-7.49,-7.43,0,*50
1509120010.6,10942,11.5,72770.5,-6.65,-7.49,-7.49,0,*5B
1509120011.83,10943,11.5,72772.0,-6.65,-7.61,-7.53,0,*5B
1509120013.11,10944,11.44,72768.3,-6.67,-7.73,-7.73,0,*5F
1509120014.34,10945,11.5,72766.5,-6.67,-7.87,-7.87,0,*5E
1509120015.62,10946,11.5,72764.3,-6.67,-7.65,-7.65,0,*5D
1509120016.86,10947,11.44,72764.3,-6.67,-7.61,-7.53,0,*5D
1509120018.08,10948,11.5,72764.0,-6.67,-7.53,-7.53,0,*53
1509120019.3,10949,11.44,72762.8,-6.67,-7.49,-7.49,0,*52
1509120020.53,10950,11.44,72756.8,-6.67,-7.53,-7.49,0,*51
1509120021.81,10951,11.5,72764.5,-6.67,-7.73,-7.73,0,*5B
1509120023.03,10952,11.44,72754.5,-6.69,-8.17,-8.03,0,*53
1509120024.28,10953,11.44,72748.0,-6.69,-7.95,-7.95,0,*57
1509120025.54,10954,11.44,72758.5,-6.73,-7.57,-7.57,0,*5B
1509120026.73,10955,11.44,72762.8,-6.69,-7.53,-7.53,0,*51
1509120027.98,10956,11.44,72774.5,-6.69,-7.77,-7.77,0,*52
1509120029.2,10957,11.44,72774.8,-6.69,-7.83,-7.77,0,*58
1509120030.45,10958,11.44,72776.3,-6.69,-7.91,-7.77,0,*54
1509120031.68,10959,11.5,72778.8,-6.73,-7.91,-7.83,0,*55
1509120032.87,10960,11.5,72776.5,-6.73,-8.33,-8.41,0,*59
1509120034.07,10961,11.44,72780.3,-6.73,-8.33,-8.33,0,*5D
1509120035.29,10962,11.44,72776.8,-6.73,-7.83,-7.95,0,*59
1509120036.54,10963,11.44,72774.8,-6.73,-7.95,-7.95,0,*5F
1509120037.82,10964,11.44,72772.8,-6.75,-8.11,-8.11,0,*5E
1509120039.09,10965,11.44,72778.3,-6.75,-7.95,-7.99,0,*53
1509120040.34,10966,11.44,72772.5,-6.77,-8.07,-8.11,0,*59
1509120041.57,10967,11.44,72774.8,-6.77,-8.11,-8.21,0,*5C
1509120042.85,10968,11.44,72766.0,-6.75,-8.11,-8.11,0,*52
1509120044.1,10969,11.44,72766.8,-6.77,-8.07,-7.99,0,*59
1509120045.37,10970,11.44,72766.0,-6.75,-7.95,-7.95,0,*5B
1509120046.66,10971,11.44,72762.5,-6.75,-8.11,-8.07,0,*5D
1509120047.85,10972,11.44,72770.5,-6.77,-8.33,-8.33,0,*5B
1509120049.07,10973,11.44,72764.5,-6.79,-8.55,-8.59,0,*58
1509120050.29,10974,11.5,72758.5,-6.81,-8.81,-8.85,0,*50
1509120051.49,10975,11.44,72780.3,-6.81,-8.17,-8.25,0,*54
1509120052.76,10976,11.44,72770.0,-6.79,-7.91,-7.91,0,*51
1509120054.01,10977,11.44,72726.0,-6.79,-8.11,-8.17,0,*56
1509120055.26,10978,11.5,72738.8,-6.81,-7.99,-7.91,0,*50
1509120056.51,10979,11.44,72738.0,-6.81,-8.03,-7.99,0,*55
1509120057.73,10980,11.44,72746.3,-6.79,-8.25,-8.17,0,*59
1509120058.98,10981,11.44,72736.8,-6.81,-8.03,-8.11,0,*5D
1509120060.25,10982,11.44,72730.3,-6.79,-8.03,-8.11,0,*59
1509120061.5,10983,11.44,72738.0,-6.81,-7.65,-7.73,0,*5B
1509120062.75,10984,11.5,72750.0,-6.81,-7.65,-7.65,0,*5B
1509120064.01,10985,11.44,72746.0,-6.81,-7.73,-7.73,0,*5A
1509120065.21,10986,11.44,72732.5,-6.81,-7.87,-7.87,0,*59
1509120066.46,10987,11.44,72734.0,-6.79,-7.87,-7.91,0,*58
1509120067.71,10988,11.44,72740.5,-6.81,-7.91,-7.99,0,*5F
1509120068.9,10989,11.44,72708.8,-6.81,-8.25,-8.29,0,*5A
1509120070.15,10990,11.44,72730.0,-6.81,-7.91,-7.77,0,*56
1509120071.43,10991,11.44,72748.3,-6.79,-7.61,-7.57,0,*5D
1509120072.69,10992,11.44,72658.0,-6.81,-7.65,-7.61,0,*58
1509120073.97,10993,11.44,72656.5,-6.79,-7.73,-7.73,0,*5A
1509120075.16,10994,11.44,72640.0,-6.81,-8.29,-8.17,0,*57
1509120076.38,10995,11.44,72644.0,-6.79,-8.29,-8.25,0,*50
1509120077.63,10996,11.44,72628.8,-6.81,-7.77,-7.91,0,*50
1509120078.91,10997,11.44,72638.3,-6.79,-7.61,-7.65,0,*5A
1509120080.17,10998,11.44,72690.5,-6.81,-7.57,-7.57,0,*56
1509120081.42,10999,11.44,72696.3,-6.81,-7.43,-7.43,0,*57
1509120082.7,11000,11.44,72676.8,-6.79,-7.35,-7.35,0,*58
1509120083.98,11001,11.44,72694.0,-6.79,-7.43,-7.43,0,*59
1509120085.26,11002,11.44,72700.5,-6.79,-7.43,-7.43,0,*5A
1509120086.51,11003,11.44,72712.8,-6.81,-7.35,-7.31,0,*58
1509120087.76,11004,11.44,72722.3,-6.77,-7.31,-7.31,0,*52
1509120089.0,11005,11.44,72722.8,-6.77,-7.39,-7.31,0,*5B
1509120090.24,11006,11.44,72728.0,-6.77,-7.39,-7.39,0,*50
1509120091.49,11007,11.44,72722.8,-6.77,-7.39,-7.31,0,*59
1509120092.73,11008,11.5,72724.3,-6.77,-7.39,-7.39,0,*5E
1509120093.99,11009,11.44,72706.0,-6.77,-7.43,-7.43,0,*5F
1509120095.23,11010,11.44,72702.0,-6.77,-7.39,-7.39,0,*57
1509120096.48,11011,11.44,72720.0,-6.77,-7.43,-7.39,0,*5B
1509120097.72,11012,11.44,72728.8,-6.77,-7.39,-7.39,0,*55
1509120098.97,11013,11.44,72738.0,-6.75,-7.43,-7.53,0,*57
1509120100.25,11014,11.44,72736.5,-6.75,-7.43,-7.39,0,*5C
1509120101.49,11015,11.44,72738.0,-6.77,-7.39,-7.39,0,*52
1509120102.73,11016,11.44,72746.3,-6.77,-7.39,-7.27,0,*5E
1509120104.01,11017,11.44,72750.5,-6.75,-7.31,-7.39,0,*5A
1509120105.28,11018,11.44,72754.0,-6.75,-7.31,-7.31,0,*5D
1509120106.56,11019,11.44,72760.5,-6.75,-7.31,-7.31,0,*5C
1509120107.83,11020,11.44,72766.0,-6.75,-7.27,-7.31,0,*51
1509120109.08,11021,11.44,72760.3,-6.73,-7.27,-7.35,0,*52
1509120110.33,11022,11.44,72764.3,-6.73,-7.27,-7.27,0,*52
1509120111.54,11023,11.44,72770.0,-6.73,-7.23,-7.23,0,*53
1509120112.77,11024,11.44,72770.8,-6.73,-7.27,-7.23,0,*50
1509120113.97,11025,11.44,72776.5,-6.73,-7.23,-7.23,0,*55
1509120115.18,11026,11.44,72776.8,-6.73,-7.23,-7.23,0,*56
1509120116.41,11027,11.44,72770.8,-6.69,-7.27,-7.23,0,*58
1509120117.64,11028,11.44,72766.3,-6.69,-7.35,-7.23,0,*54
1509120118.89,11029,11.44,72766.3,-6.73,-7.35,-7.27,0,*5A
1509120120.12,11030,11.44,72780.3,-6.69,-7.23,-7.27,0,*5E
1509120121.36,11031,11.5,72788.8,-6.69,-7.27,-7.27,0,*5B
1509120122.61,11032,11.44,72786.8,-6.73,-7.27,-7.27,0,*53
1509120123.86,11033,11.44,72786.5,-6.69,-7.27,-7.27,0,*59
1509120125.11,11034,11.44,72788.0,-6.69,-7.39,-7.27,0,*51
1509120126.31,11035,11.44,72788.0,-6.69,-7.23,-7.23,0,*5F
1509120127.51,11036,11.44,72794.8,-6.69,-7.23,-7.23,0,*5C
1509120128.76,11037,11.44,72798.3,-6.69,-7.27,-7.27,0,*5D
1509120129.99,11038,11.44,72798.3,-6.67,-7.23,-7.19,0,*55
1509120131.22,11039,11.44,72802.0,-6.67,-7.19,-7.19,0,*5D
1509120132.47,11040,11.44,72806.0,-6.69,-7.27,-7.27,0,*5D
1509120133.7,11041,11.44,72802.5,-6.67,-7.23,-7.19,0,*5B
1509120134.93,11042,11.44,72806.8,-6.67,-7.23,-7.23,0,*51
1509120136.18,11043,11.44,72804.3,-6.67,-7.31,-7.23,0,*53
1509120137.43,11044,11.44,72808.0,-6.67,-7.31,-7.19,0,*5D
1509120138.63,11045,11.44,72812.3,-6.65,-7.23,-7.23,0,*54
1509120139.86,11046,11.44,72818.3,-6.65,-7.31,-7.19,0,*5D
1509120141.11,11047,11.44,72820.5,-6.65,-7.35,-7.31,0,*52
1509120142.36,11048,11.44,72828.8,-6.67,-7.35,-7.23,0,*5C
1509120143.61,11049,11.44,72832.8,-6.65,-7.35,-7.35,0,*58
1509120144.86,11050,11.44,72834.0,-6.67,-7.49,-7.43,0,*58
1509120146.14,11051,11.44,72840.5,-6.67,-7.43,-7.43,0,*53
1509120147.39,11052,11.44,72832.8,-6.67,-7.49,-7.43,0,*5A
1509120148.62,11053,11.44,72828.0,-6.67,-7.49,-7.49,0,*51
1509120149.87,11054,11.44,72812.5,-6.67,-7.77,-7.87,0,*59
1509120151.12,11055,11.5,72806.0,-6.65,-7.77,-7.65,0,*56
1509120152.34,11056,11.44,72778.8,-6.67,-7.53,-7.49,0,*5F
1509120153.62,11057,11.5,72754.5,-6.67,-7.73,-7.73,0,*55
1509120154.91,11058,11.44,72732.8,-6.67,-7.61,-7.61,0,*5A
1509120156.13,11059,11.44,72738.0,-6.67,-7.53,-7.53,0,*5B
1509120157.35,11060,11.44,72750.5,-6.67,-7.53,-7.53,0,*51
1509120158.57,11061,11.44,72758.3,-6.67,-7.53,-7.49,0,*5B
1509120159.79,11062,11.44,72766.5,-6.67,-7.49,-7.49,0,*53
1509120161.07,11063,11.44,72784.3,-6.67,-7.43,-7.43,0,*52
1509120162.27,11064,11.44,72788.3,-6.69,-7.49,-7.49,0,*5B
1509120163.46,11065,11.44,72766.5,-6.69,-7.53,-7.53,0,*5A
1509120164.71,11066,11.44,72772.0,-6.69,-7.69,-7.69,0,*59
1509120165.95,11067,11.44,72774.5,-6.73,-8.03,-8.03,0,*53
1509120167.14,11068,11.44,72768.8,-6.69,-8.29,-8.33,0,*5C
1509120168.33,11069,11.44,72760.8,-6.69,-8.33,-8.41,0,*53
1509120169.53,11070,11.44,72760.8,-6.73,-8.41,-8.33,0,*50
1509120170.74,11071,11.44,72762.3,-6.73,-8.75,-8.89,0,*57
1509120171.97,11072,11.44,72758.0,-6.75,-9.01,-9.05,0,*55
1509120173.16,11073,11.44,72754.8,-6.77,-8.75,-8.75,0,*52
1509120174.36,11074,11.44,72748.3,-6.77,-8.63,-8.67,0,*51
1509120175.62,11075,11.44,72738.8,-6.79,-8.81,-8.81,0,*5A
1509120176.82,11076,11.44,72748.0,-6.81,-8.41,-8.41,0,*5E
1509120178.1,11077,11.44,72752.0,-6.79,-8.11,-8.03,0,*5B
1509120179.35,11078,11.44,72746.0,-6.81,-8.11,-8.11,0,*50
1509120180.62,11079,11.44,72732.0,-6.79,-7.91,-7.91,0,*56
1509120181.9,11080,11.44,72736.0,-6.79,-7.77,-7.77,0,*50
1509120183.18,11081,11.44,72750.0,-6.79,-7.73,-7.77,0,*55
1509120184.46,11082,11.44,72748.3,-6.79,-7.65,-7.65,0,*52
1509120185.69,11083,11.44,72748.3,-6.81,-7.73,-7.87,0,*5F
1509120186.97,11084,11.44,72760.3,-6.79,-7.91,-7.77,0,*5C
1509120188.25,11085,11.44,72768.5,-6.79,-7.65,-7.61,0,*51
1509120189.53,11086,11.44,72766.5,-6.79,-7.65,-7.65,0,*56
1509120190.78,11087,11.44,72760.5,-6.81,-7.61,-7.61,0,*50
1509120192.01,11088,11.44,72766.5,-6.81,-7.57,-7.49,0,*50
1509120193.26,11089,11.44,72756.5,-6.79,-7.49,-7.43,0,*53
1509120194.51,11090,11.44,72750.8,-6.79,-7.49,-7.43,0,*5B
1509120195.76,11091,11.44,72750.5,-6.77,-7.43,-7.39,0,*53
1509120197.01,11092,11.44,72744.0,-6.77,-7.43,-7.39,0,*50
1509120198.24,11093,11.44,72750.0,-6.77,-7.53,-7.43,0,*5D
1509120199.5,11094,11.44,72760.5,-6.77,-7.57,-7.57,0,*5B
1509120200.75,11095,11.44,72786.0,-6.77,-7.57,-7.57,0,*5A
1509120201.97,11096,11.44,72790.5,-6.77,-7.53,-7.39,0,*55
1509120203.22,11097,11.44,72764.5,-6.77,-7.39,-7.43,0,*55
1509120204.5,11098,11.44,72770.3,-6.75,-7.43,-7.43,0,*55
1509120205.7,11099,11.44,72764.5,-6.77,-7.53,-7.53,0,*56
1509120206.98,11100,11.44,72760.8,-6.75,-7.43,-7.39,0,*58
1509120208.2,11101,11.44,72746.3,-6.75,-7.53,-7.53,0,*54
1509120209.45,11102,11.44,72754.5,-6.75,-7.57,-7.53,0,*53
1509120210.73,11103,11.44,72762.8,-6.75,-7.73,-7.73,0,*56
1509120211.96,11104,11.44,72762.0,-6.75,-7.83,-7.83,0,*51
1509120213.25,11105,11.44,72762.5,-6.75,-7.73,-7.61,0,*53
1509120214.53,11106,11.44,72756.5,-6.75,-7.73,-7.61,0,*50
1509120215.82,11107,11.44,72754.0,-6.75,-7.61,-7.61,0,*52
1509120217.07,11108,11.44,72752.8,-6.77,-7.57,-7.61,0,*5A
1509120218.32,11109,11.44,72744.0,-6.75,-7.57,-7.53,0,*58
1509120219.6,11110,11.44,72740.8,-6.75,-7.43,-7.39,0,*59
1509120220.87,11111,11.44,72744.8,-6.75,-7.39,-7.39,0,*55
1509120222.14,11112,11.44,72744.3,-6.75,-7.39,-7.31,0,*5E
1509120223.41,11113,11.44,72752.3,-6.75,-7.39,-7.39,0,*57
1509120224.68,11114,11.44,72776.0,-6.75,-7.39,-7.31,0,*58
1509120225.96,11115,11.44,72770.5,-6.75,-7.39,-7.31,0,*59
1509120227.21,11116,11.44,72772.3,-6.73,-7.35,-7.35,0,*54
1509120228.46,11117,11.44,72770.3,-6.73,-7.35,-7.35,0,*55
1509120229.72,11118,11.44,72768.0,-6.73,-7.35,-7.35,0,*5A
1509120230.96,11119,11.44,72758.0,-6.73,-7.39,-7.39,0,*5B
1509120232.21,11120,11.44,72768.3,-6.69,-7.35,-7.39,0,*56
1509120233.46,11121,11.44,72772.8,-6.73,-7.39,-7.35,0,*5C
1509120234.65,11122,11.44,72762.8,-6.69,-7.53,-7.53,0,*58
1509120235.9,11123,11.44,72764.3,-6.69,-7.69,-7.69,0,*59
1509120237.15,11124,11.44,72782.8,-6.73,-7.77,-7.77,0,*55
1509120238.34,11125,11.44,72774.5,-6.73,-8.21,-8.33,0,*57
1509120239.53,11126,11.44,72770.0,-6.73,-8.33,-8.33,0,*57
1509120240.74,11127,11.44,72770.3,-6.73,-8.17,-8.21,0,*53
1509120241.96,11128,11.44,72762.5,-6.75,-8.67,-8.63,0,*5B
1509120243.18,11129,11.44,72754.8,-6.77,-8.45,-8.51,0,*59
1509120244.37,11130,11.44,72752.0,-6.77,-8.33,-8.25,0,*53
1509120245.6,11131,11.44,72746.5,-6.77,-8.21,-8.07,0,*51
1509120246.83,11132,11.44,72748.8,-6.77,-8.07,-8.21,0,*52
1509120248.06,11133,11.44,72754.0,-6.77,-8.21,-8.07,0,*53
1509120249.33,11134,11.44,72756.3,-6.79,-7.99,-8.03,0,*52
1509120250.6,11135,11.44,72744.3,-6.79,-7.99,-7.91,0,*57
1509120251.88,11136,11.44,72744.5,-6.79,-7.99,-7.99,0,*5C
1509120253.13,11137,11.44,72752.3,-6.79,-7.91,-7.87,0,*5A
1509120254.38,11138,11.44,72766.5,-6.79,-7.87,-7.77,0,*5D
1509120255.65,11139,11.44,72756.0,-6.79,-7.99,-7.91,0,*5B
1509120256.88,11140,11.44,72766.5,-6.79,-8.25,-8.17,0,*5C
1509120258.1,11141,11.44,72762.8,-6.79,-8.17,-8.17,0,*5C
1509120259.3,11142,11.44,72772.3,-6.81,-8.25,-8.29,0,*54
1509120260.54,11143,11.44,72738.8,-6.81,-7.91,-8.03,0,*5D
1509120261.79,11144,11.44,72736.3,-6.81,-8.03,-8.11,0,*5D
1509120263.03,11145,11.44,72732.8,-6.81,-8.03,-7.99,0,*53
1509120264.26,11146,11.44,72726.0,-6.81,-7.87,-7.77,0,*53
1509120265.46,11147,11.44,72716.5,-6.81,-7.87,-7.87,0,*5D
1509120266.71,11148,11.44,72718.5,-6.81,-7.77,-7.73,0,*56
1509120267.96,11149,11.44,72738.8,-6.81,-7.65,-7.65,0,*53
1509120269.19,11150,11.44,72738.3,-6.81,-7.87,-7.91,0,*5C
1509120270.41,11151,11.44,72718.3,-6.81,-8.17,-8.03,0,*5F
1509120271.68,11152,11.44,72682.0,-6.79,-7.91,-7.91,0,*5E
1509120272.93,11153,11.44,72700.0,-6.81,-7.65,-7.65,0,*58
1509120274.21,11154,11.44,72740.0,-6.79,-7.65,-7.61,0,*5C
1509120275.47,11155,11.44,72730.3,-6.81,-7.65,-7.61,0,*5A
1509120276.75,11156,11.44,72728.3,-6.79,-7.61,-7.57,0,*5F
1509120278.03,11157,11.44,72746.5,-6.79,-7.57,-7.57,0,*5B
1509120279.26,11158,11.44,72740.0,-6.81,-7.57,-7.49,0,*5C
1509120280.51,11159,11.44,72748.3,-6.81,-7.61,-7.57,0,*57
1509120281.76,11160,11.44,72750.5,-6.79,-7.49,-7.43,0,*55
1509120282.98,11161,11.44,72748.0,-6.79,-7.49,-7.49,0,*5E
1509120284.21,11162,11.44,72754.8,-6.81,-7.49,-7.43,0,*50
1509120285.46,11163,11.44,72750.8,-6.77,-7.43,-7.39,0,*5F
1509120286.68,11164,11.44,72754.5,-6.79,-7.49,-7.49,0,*5B
1509120287.9,11165,11.44,72756.8,-6.79,-7.49,-7.49,0,*5A
1509120289.15,11166,11.44,72758.8,-6.79,-7.49,-7.43,0,*53
1509120290.35,11167,11.44,72776.5,-6.77,-7.53,-7.53,0,*56
1509120291.6,11168,11.44,72766.0,-6.75,-7.57,-7.53,0,*5F
1509120292.84,11169,11.44,72754.5,-6.77,-7.69,-7.69,0,*58
1509120294.09,11170,11.44,72758.0,-6.77,-7.69,-7.61,0,*58
1509120295.35,11171,11.44,72756.5,-6.77,-7.69,-7.61,0,*59
1509120296.6,11172,11.44,72760.0,-6.77,-7.61,-7.61,0,*52
1509120297.86,11173,11.44,72762.3,-6.77,-7.61,-7.61,0,*53
1509120299.11,11174,11.44,72760.0,-6.77,-7.61,-7.57,0,*51
1509120300.36,11175,11.44,72758.0,-6.77,-7.61,-7.61,0,*55
1509120301.59,11176,11.44,72766.5,-6.77,-7.57,-7.53,0,*52
1509120302.84,11177,11.44,72768.0,-6.77,-7.57,-7.57,0,*57
1509120304.12,11178,11.44,72776.5,-6.79,-7.61,-7.61,0,*56
1509120305.38,11179,11.44,72774.3,-6.77,-7.61,-7.57,0,*5C
1509120306.57,11180,11.44,72772.0,-6.77,-7.53,-7.53,0,*5F
1509120307.83,11181,11.44,72772.5,-6.77,-7.57,-7.57,0,*5E
1509120309.08,11182,11.44,72772.5,-6.77,-7.61,-7.57,0,*58
1509120310.3,11183,11.44,72770.0,-6.77,-7.57,-7.53,0,*58
1509120311.56,11184,11.44,72766.0,-6.77,-7.57,-7.43,0,*5E
1509120312.79,11185,11.44,72758.0,-6.77,-7.53,-7.43,0,*5B
1509120314.02,11186,11.44,72760.5,-6.77,-7.53,-7.43,0,*58
1509120315.26,11187,11.44,72760.3,-6.77,-7.43,-7.39,0,*55
1509120316.54,11188,11.44,72762.8,-6.75,-7.43,-7.39,0,*58
1509120317.79,11189,11.44,72760.0,-6.77,-7.39,-7.39,0,*56
1509120319.01,11190,11.44,72768.5,-6.77,-7.43,-7.53,0,*5F
1509120320.25,11191,11.44,72772.0,-6.77,-7.39,-7.31,0,*57
1509120321.49,11192,11.44,72768.8,-6.77,-7.39,-7.31,0,*54
1509120322.77,11193,11.44,72772.8,-6.75,-7.39,-7.27,0,*50
1509120324.04,11194,11.44,72774.0,-6.75,-7.39,-7.31,0,*50
1509120325.28,11195,11.44,72780.8,-6.77,-7.39,-7.31,0,*53
1509120326.56,11196,11.44,72784.0,-6.75,-7.43,-7.31,0,*5F
1509120327.83,11197,11.44,72782.3,-6.75,-7.39,-7.39,0,*5B
1509120329.1,11198,11.44,72780.8,-6.75,-7.39,-7.39,0,*54
1509120330.37,11199,11.44,72784.3,-6.75,-7.39,-7.31,0,*5D
1509120331.64,11200,11.44,72784.3,-6.75,-7.39,-7.31,0,*5E
1509120332.89,11201,11.44,72780.8,-6.73,-7.35,-7.27,0,*52
1509120334.15,11202,11.44,72782.0,-6.73,-7.35,-7.27,0,*51
1509120335.4,11203,11.44,72784.3,-6.73,-7.35,-7.35,0,*53
1509120336.65,11204,11.44,72784.8,-6.73,-7.39,-7.39,0,*54
1509120337.9,11205,11.44,72784.0,-6.73,-7.27,-7.35,0,*56
1509120339.15,11206,11.44,72788.5,-6.73,-7.35,-7.27,0,*55
1509120340.38,11207,11.44,72778.8,-6.69,-7.27,-7.23,0,*58
1509120341.63,11208,11.44,72762.3,-6.69,-7.35,-7.35,0,*53
1509120342.88,11209,11.44,72752.0,-6.69,-7.35,-7.27,0,*51
1509120344.12,11210,11.44,72750.3,-6.69,-7.27,-7.27,0,*5A
1509120345.37,11211,11.44,72744.0,-6.69,-7.27,-7.27,0,*5B
1509120346.62,11212,11.44,72742.3,-6.73,-7.35,-7.35,0,*53
1509120347.87,11213,11.44,72748.3,-6.69,-7.35,-7.35,0,*59
1509120349.12,11214,11.44,72754.0,-6.69,-7.35,-7.39,0,*52
1509120350.37,11215,11.44,72762.0,-6.69,-7.39,-7.35,0,*53
1509120351.62,11216,11.44,72770.3,-6.69,-7.35,-7.39,0,*50
1509120352.86,11217,11.44,72800.3,-6.69,-7.39,-7.35,0,*51
1509120354.1,11218,11.44,72806.3,-6.69,-7.39,-7.35,0,*5E
1509120355.35,11219,11.44,72804.3,-6.69,-7.39,-7.27,0,*5C
1509120356.54,11220,11.44,72796.0,-6.69,-7.49,-7.49,0,*59
1509120357.79,11221,11.44,72784.8,-6.69,-7.35,-7.39,0,*54
1509120358.99,11222,11.44,72780.8,-6.69,-7.53,-7.49,0,*50
1509120360.21,11223,11.44,72764.8,-6.69,-7.91,-7.83,0,*59
1509120361.41,11224,11.44,72746.3,-6.69,-8.29,-8.21,0,*55
1509120362.62,11225,11.44,72748.8,-6.73,-7.83,-7.83,0,*57
1509120363.86,11226,11.44,72762.5,-6.69,-7.69,-7.77,0,*50
1509120365.07,11227,11.44,72760.5,-6.73,-8.21,-8.21,0,*55
1509120366.27,11228,11.44,72772.8,-6.73,-8.71,-8.71,0,*5A
1509120367.47,11229,11.44,72778.3,-6.73,-8.85,-8.75,0,*54
1509120368.68,11230,11.44,72774.3,-6.77,-8.89,-8.93,0,*5C
1509120369.9,11231,11.44,72778.5,-6.77,-8.81,-8.89,0,*5E
1509120371.13,11232,11.44,72746.0,-6.77,-8.51,-8.37,0,*55
1509120372.34,11233,11.44,72746.8,-6.81,-8.71,-8.71,0,*5D
1509120373.53,11234,11.44,72758.3,-6.81,-8.37,-8.41,0,*5B
1509120374.78,11235,11.44,72770.3,-6.81,-7.99,-7.91,0,*53
1509120375.98,11236,11.44,72778.3,-6.81,-8.17,-8.25,0,*59
1509120377.17,11237,11.44,72766.5,-6.81,-8.67,-8.67,0,*59
1509120378.37,11238,11.44,72684.0,-6.81,-8.71,-8.67,0,*51
1509120379.57,11239,11.44,72722.3,-6.81,-8.59,-8.45,0,*5A
1509120380.77,11240,11.44,72728.3,-6.85,-8.45,-8.37,0,*58
1509120381.97,11241,11.44,72728.8,-6.81,-8.63,-8.63,0,*58
1509120383.17,11242,11.44,72730.5,-6.85,-8.89,-8.89,0,*5F
1509120384.4,11243,11.44,72732.5,-6.87,-9.05,-9.19,0,*51
1509120385.63,11244,11.44,72744.3,-6.87,-8.89,-8.93,0,*50
1509120386.91,11245,11.44,72732.3,-6.87,-8.51,-8.51,0,*5A
1509120388.19,11246,11.44,72734.0,-6.91,-8.51,-8.51,0,*5E
1509120389.41,11247,11.44,72730.5,-6.91,-8.55,-8.55,0,*5F
1509120390.63,11248,11.44,72732.5,-6.91,-8.55,-8.63,0,*55
1509120391.86,11249,11.44,72720.8,-6.91,-8.55,-8.63,0,*54
1509120393.08,11250,11.44,72728.0,-6.91,-8.37,-8.41,0,*58
1509120394.31,11251,11.44,72736.3,-6.93,-8.45,-8.45,0,*5A
1509120395.53,11252,11.44,72728.3,-6.93,-8.59,-8.59,0,*59
1509120396.75,11253,11.44,72730.0,-6.93,-8.97,-8.89,0,*57
1509120397.96,11254,11.44,72718.5,-6.95,-9.01,-8.85,0,*54
1509120399.17,11255,11.44,72720.0,-6.95,-8.85,-8.85,0,*58
1509120400.38,11256,11.44,72718.0,-6.93,-8.33,-8.33,0,*5D
1509120401.6,11257,11.44,72722.3,-6.93,-8.17,-8.17,0,*5C
1509120402.79,11258,11.44,72720.0,-6.95,-8.21,-8.29,0,*5D
1509120404.01,11259,11.44,72720.3,-6.93,-8.21,-8.29,0,*5A
1509120405.2,11260,11.44,72710.0,-6.95,-8.21,-8.17,0,*5B
1509120406.47,11261,11.44,72708.8,-6.93,-8.03,-7.95,0,*59
1509120407.67,11262,11.44,72708.5,-6.95,-7.83,-7.83,0,*5C
1509120408.95,11263,11.44,72718.0,-6.93,-7.73,-7.73,0,*5B
1509120410.17,11264,11.44,72720.8,-6.93,-7.83,-7.83,0,*5C
1509120411.45,11265,11.44,72716.8,-6.93,-7.73,-7.73,0,*5D
1509120412.73,11266,11.44,72730.5,-6.93,-7.73,-7.77,0,*5A
1509120414.01,11267,11.44,72750.5,-6.93,-7.77,-7.73,0,*5B
1509120415.24,11268,11.44,72746.0,-6.91,-7.87,-7.87,0,*52
1509120416.52,11269,11.44,72708.5,-6.91,-8.11,-8.11,0,*53
1509120417.79,11270,11.44,72692.0,-6.91,-8.11,-8.03,0,*58
1509120419.02,11271,11.44,72710.8,-6.91,-8.25,-8.25,0,*5A
1509120420.24,11272,11.44,72694.8,-6.91,-8.17,-8.25,0,*58
1509120421.52,11273,11.44,72686.8,-6.91,-8.11,-8.11,0,*58
1509120422.8,11274,11.44,72698.3,-6.91,-7.77,-7.73,0,*5B
1509120424.08,11275,11.44,72720.8,-6.93,-7.73,-7.65,0,*5B
1509120425.33,11276,11.44,72716.5,-6.93,-7.77,-7.83,0,*54
1509120426.6,11277,11.44,72718.3,-6.91,-7.91,-7.91,0,*5C
1509120427.88,11278,11.44,72726.8,-6.91,-7.69,-7.69,0,*53
1509120429.15,11279,11.44,72718.8,-6.87,-7.69,-7.69,0,*55
1509120430.4,11280,11.44,72726.8,-6.87,-7.57,-7.53,0,*57
1509120431.68,11281,11.44,72728.3,-6.91,-7.57,-7.57,0,*55
1509120432.96,11282,11.44,72728.5,-6.87,-7.57,-7.65,0,*50
1509120434.24,11283,11.44,72720.8,-6.87,-7.65,-7.69,0,*5C
1509120435.43,11284,11.44,72736.3,-6.85,-7.53,-7.53,0,*55
1509120436.69,11285,11.44,72732.3,-6.85,-7.57,-7.43,0,*51
1509120437.91,11286,11.44,72744.3,-6.85,-7.57,-7.53,0,*53
1509120439.13,11287,11.44,72740.8,-6.85,-7.53,-7.43,0,*57
1509120440.38,11288,11.44,72710.8,-6.85,-7.69,-7.69,0,*59
1509120441.63,11289,11.44,72732.0,-6.85,-7.73,-7.73,0,*58
1509120442.83,11290,11.44,72736.5,-6.81,-7.49,-7.49,0,*54
1509120444.07,11291,11.44,72732.5,-6.85,-7.69,-7.69,0,*51
1509120445.32,11292,11.44,72712.5,-6.85,-7.73,-7.73,0,*52
1509120446.55,11293,11.44,72718.0,-6.81,-7.83,-7.77,0,*5C
1509120447.8,11294,11.44,72714.3,-6.85,-7.73,-7.65,0,*53
1509120449.05,11295,11.38,72746.3,-6.85,-7.69,-7.65,0,*59
1509120450.3,11296,11.44,72728.5,-6.81,-7.69,-7.65,0,*5E
1509120451.54,11297,11.44,72718.0,-6.85,-7.69,-7.65,0,*5B
1509120452.79,11298,11.44,72720.8,-6.81,-7.65,-7.65,0,*5C
1509120454.04,11299,11.44,72736.3,-6.81,-7.69,-7.65,0,*51
1509120455.29,11300,11.44,72732.3,-6.81,-7.77,-7.69,0,*53
1509120456.54,11301,11.44,72732.5,-6.85,-7.73,-7.73,0,*59
1509120457.77,11302,11.44,72728.5,-6.85,-7.83,-7.73,0,*55
1509120459.02,11303,11.44,72698.3,-6.81,-7.77,-7.77,0,*5F
1509120460.26,11304,11.38,72694.8,-6.85,-7.95,-7.95,0,*5C
1509120461.5,11305,11.44,72692.3,-6.85,-7.99,-7.99,0,*5D
1509120462.73,11306,11.44,72702.0,-6.85,-7.83,-7.73,0,*51
1509120463.93,11307,11.44,72682.8,-6.85,-7.83,-7.83,0,*5F
1509120465.18,11308,11.44,72680.5,-6.85,-7.73,-7.69,0,*5B
1509120466.43,11309,11.44,72666.8,-6.85,-7.73,-7.57,0,*57
1509120467.68,11310,11.44,72676.5,-6.85,-7.43,-7.43,0,*59
1509120468.9,11311,11.44,72688.0,-6.81,-7.49,-7.39,0,*5B
1509120470.13,11312,11.44,72710.0,-6.81,-7.49,-7.39,0,*58
1509120471.38,11313,11.44,72704.3,-6.85,-7.65,-7.57,0,*5B
1509120472.62,11314,11.44,72706.0,-6.81,-7.91,-7.91,0,*59
1509120473.82,11315,11.44,72702.3,-6.81,-7.83,-7.83,0,*58
1509120475.03,11316,11.44,72710.0,-6.81,-7.83,-7.83,0,*5B
1509120476.28,11317,11.44,72712.0,-6.81,-7.69,-7.65,0,*56
1509120477.53,11318,11.44,72708.3,-6.81,-7.69,-7.61,0,*5D
1509120478.78,11319,11.38,72708.8,-6.81,-7.65,-7.61,0,*50
1509120480.04,11320,11.44,72720.0,-6.81,-7.61,-7.61,0,*5E
1509120481.26,11321,11.44,72714.5,-6.81,-7.61,-7.53,0,*5E
1509120482.45,11322,11.44,72710.5,-6.81,-7.49,-7.49,0,*5C
1509120483.65,11323,11.44,72704.5,-6.81,-7.53,-7.49,0,*56
1509120484.87,11324,11.44,72730.5,-6.81,-7.61,-7.53,0,*5B
1509120486.07,11325,11.44,72744.8,-6.81,-7.53,-7.49,0,*50
1509120487.26,11326,11.44,72720.8,-6.81,-7.49,-7.49,0,*58
1509120488.46,11327,11.44,72722.3,-6.81,-7.49,-7.49,0,*59
1509120489.71,11328,11.38,72712.0,-6.81,-7.61,-7.61,0,*56
1509120490.91,11329,11.44,72734.5,-6.81,-7.53,-7.53,0,*57
1509120492.14,11330,11.38,72746.5,-6.81,-7.57,-7.49,0,*50
1509120493.36,11331,11.38,72752.3,-6.81,-7.49,-7.43,0,*54
1509120494.64,11332,11.44,72756.8,-6.79,-7.43,-7.35,0,*5B
1509120495.89,11333,11.38,72766.3,-6.81,-7.31,-7.35,0,*58
1509120497.16,11334,11.44,72754.0,-6.79,-7.43,-7.35,0,*5D
1509120498.44,11335,11.38,72802.5,-6.79,-7.35,-7.35,0,*5D
1509120499.7,11336,11.38,72796.8,-6.81,-7.43,-7.43,0,*59
1509120500.98,11337,11.38,72764.8,-6.79,-7.43,-7.43,0,*5F
1509120502.25,11338,11.44,72756.5,-6.79,-7.43,-7.31,0,*55
1509120503.5,11339,11.44,72766.8,-6.81,-7.43,-7.31,0,*53
1509120504.75,11340,11.44,72754.3,-6.77,-7.31,-7.31,0,*51
1509120505.99,11341,11.38,72794.0,-6.77,-7.39,-7.31,0,*58
1509120507.24,11342,11.44,72820.3,-6.77,-7.39,-7.39,0,*53
1509120508.52,11343,11.44,72806.5,-6.75,-7.43,-7.43,0,*50
1509120509.8,11344,11.44,72770.3,-6.79,-7.65,-7.57,0,*5A
1509120511.08,11345,11.38,72776.3,-6.79,-7.57,-7.57,0,*5A
1509120512.3,11346,11.44,72772.0,-6.79,-7.49,-7.49,0,*59
1509120513.55,11347,11.44,72772.5,-6.79,-7.49,-7.43,0,*52